| time (UTC) | temp F | wind direction | speed knots | gust knots | rain 1hr in | rain 24hr in | rain mn in | humidity % | barometer mb |
| 20260504043006 | 54 | 178 | 0.0 | 2.6 | 0.00 | 0.00 | 0.00 | 51 | 1001.3 |
| 20260504042506 | 54 | 162 | 0.0 | 0.9 | 0.00 | 0.00 | 0.00 | 51 | 1001.4 |
| 20260504042004 | 54 | 131 | 0.0 | 0.9 | 0.00 | 0.00 | 0.00 | 50 | 1001.5 |
| 20260504041502 | 55 | 131 | 0.0 | 0.9 | 0.00 | 0.00 | 0.00 | 50 | 1001.8 |
| 20260504041003 | 55 | 156 | 0.0 | 0.9 | 0.00 | 0.00 | 0.00 | 50 | 1001.9 |
| 20260504040458 | 55 | 190 | 0.0 | 0.9 | 0.00 | 0.00 | 0.00 | 49 | 1002.0 |
| 20260504035954 | 55 | 161 | 0.0 | 0.9 | 0.00 | 0.00 | 0.00 | 49 | 1002.1 |
| 20260504035454 | 54 | 170 | 0.0 | 0.9 | 0.00 | 0.00 | 0.00 | 49 | 1002.2 |
| 20260504034954 | 54 | 170 | 0.0 | 0.9 | 0.00 | 0.00 | 0.00 | 49 | 1002.3 |
| 20260504034454 | 54 | 181 | 0.0 | 0.9 | 0.00 | 0.00 | 0.00 | 48 | 1002.3 |
| 20260504034229 | 54 | 165 | 0.0 | 0.9 | 0.00 | 0.00 | 0.00 | 48 | 1002.5 |
| 20260504033453 | 54 | 165 | 0.0 | 0.9 | 0.00 | 0.00 | 0.00 | 48 | 1002.6 |
| 20260504032947 | 54 | 157 | 0.0 | 0.9 | 0.00 | 0.00 | 0.00 | 48 | 1002.7 |
| 20260504032441 | 54 | 156 | 0.0 | 0.0 | 0.00 | 0.00 | 0.00 | 47 | 1002.9 |
| 20260504031935 | 55 | 156 | 0.0 | 0.0 | 0.00 | 0.00 | 0.00 | 47 | 1002.9 |
| 20260504031431 | 55 | 157 | 0.0 | 0.0 | 0.00 | 0.00 | 0.00 | 46 | 1003.0 |
| 20260504031425 | 55 | 156 | 0.0 | 0.0 | 0.00 | 0.00 | 0.00 | 45 | 1003.0 |
| 20260504030417 | 56 | 156 | 0.0 | 0.0 | 0.00 | 0.00 | 0.00 | 45 | 1003.2 |
| 20260504025910 | 55 | 157 | 0.0 | 0.0 | 0.00 | 0.00 | 0.00 | 45 | 1003.2 |
| 20260504025405 | 55 | 157 | 0.0 | 0.0 | 0.00 | 0.00 | 0.00 | 46 | 1003.3 |
| 20260504024906 | 55 | 156 | 0.0 | 0.0 | 0.00 | 0.00 | 0.00 | 50 | 1003.3 |
| 20260504024901 | 55 | 156 | 0.0 | 0.0 | 0.00 | 0.00 | 0.00 | 46 | 1003.3 |
| 20260504023900 | 55 | 157 | 0.0 | 0.0 | 0.00 | 0.00 | 0.00 | 44 | 1003.4 |
| 20260504023641 | 56 | 156 | 0.0 | 0.0 | 0.00 | 0.00 | 0.00 | 43 | 1003.5 |
| 20260504023403 | 56 | 156 | 0.0 | 0.0 | 0.00 | 0.00 | 0.00 | 44 | 1003.5 |
| 20260504022358 | 56 | 156 | 0.0 | 0.0 | 0.00 | 0.00 | 0.00 | 43 | 1003.6 |
| 20260504021857 | 57 | 156 | 0.0 | 0.0 | 0.00 | 0.00 | 0.00 | 43 | 1003.5 |
| 20260504021628 | 57 | 156 | 0.0 | 0.0 | 0.00 | 0.00 | 0.00 | 42 | 1003.5 |
| 20260504021520 | 57 | 156 | 0.0 | 0.0 | 0.00 | 0.00 | 0.00 | 42 | 1003.5 |
| 20260504020354 | 57 | 156 | 0.0 | 0.0 | 0.00 | 0.00 | 0.00 | 41 | 1003.5 |
| 20260504015855 | 57 | 157 | 0.0 | 0.0 | 0.00 | 0.00 | 0.00 | 40 | 1003.5 |
| 20260504015625 | 58 | 157 | 0.0 | 0.0 | 0.00 | 0.00 | 0.00 | 40 | 1003.5 |
| 20260504014852 | 58 | 156 | 0.0 | 0.0 | 0.00 | 0.00 | 0.00 | 38 | 1003.5 |
| 20260504014353 | 58 | 156 | 0.0 | 0.0 | 0.00 | 0.00 | 0.00 | 38 | 1003.5 |
| 20260504013852 | 59 | 156 | 0.0 | 0.0 | 0.00 | 0.00 | 0.00 | 37 | 1003.5 |
| 20260504013352 | 60 | 156 | 0.0 | 0.0 | 0.00 | 0.00 | 0.00 | 36 | 1003.5 |
| 20260504013127 | 60 | 157 | 0.0 | 0.0 | 0.00 | 0.00 | 0.00 | 36 | 1003.5 |
| 20260504012356 | 61 | 157 | 0.0 | 0.0 | 0.00 | 0.00 | 0.00 | 35 | 1003.6 |
| 20260504011850 | 62 | 156 | 0.0 | 0.0 | 0.00 | 0.00 | 0.00 | 35 | 1003.5 |
| 20260504011344 | 62 | 156 | 0.0 | 0.0 | 0.00 | 0.00 | 0.00 | 35 | 1003.6 |
| 20260504010838 | 63 | 156 | 0.0 | 0.0 | 0.00 | 0.00 | 0.00 | 35 | 1003.6 |
| 20260504010332 | 63 | 157 | 0.0 | 0.9 | 0.00 | 0.00 | 0.00 | 35 | 1003.6 |
| 20260504005826 | 64 | 149 | 0.0 | 0.9 | 0.00 | 0.00 | 0.00 | 35 | 1003.6 |
| 20260504005320 | 64 | 152 | 0.0 | 1.7 | 0.00 | 0.00 | 0.00 | 34 | 1003.7 |
| 20260504004814 | 65 | 156 | 0.9 | 3.5 | 0.00 | 0.00 | 0.00 | 34 | 1003.7 |
| 20260504004308 | 66 | 143 | 1.7 | 3.5 | 0.00 | 0.00 | 0.00 | 33 | 1003.7 |
| 20260504003802 | 66 | 133 | 1.7 | 4.3 | 0.00 | 0.00 | 0.00 | 31 | 1003.7 |
| 20260504003256 | 66 | 218 | 2.6 | 4.3 | 0.00 | 0.00 | 0.00 | 31 | 1003.8 |
| 20260504002750 | 66 | 111 | 2.6 | 5.2 | 0.00 | 0.00 | 0.00 | 32 | 1003.9 |
| 20260504002516 | 66 | 198 | 2.6 | 5.2 | 0.00 | 0.00 | 0.00 | 31 | 1003.9 |
| 20260504002011 | 67 | 173 | 2.6 | 5.2 | 0.00 | 0.00 | 0.00 | 31 | 1003.9 |
| 20260504001232 | 67 | 163 | 2.6 | 5.2 | 0.00 | 0.00 | 0.00 | 31 | 1003.9 |
| 20260504000726 | 68 | 143 | 1.7 | 5.2 | 0.00 | 0.00 | 0.00 | 33 | 1004.0 |
| 20260504000220 | 67 | 184 | 1.7 | 3.5 | 0.00 | 0.00 | 0.00 | 36 | 1004.0 |
| 20260503235714 | 67 | 160 | 1.7 | 4.3 | 0.00 | 0.00 | 0.00 | 34 | 1004.0 |
| 20260503235208 | 68 | 215 | 1.7 | 4.3 | 0.00 | 0.00 | 0.00 | 32 | 1003.9 |
| 20260503234932 | 68 | 97 | 2.6 | 5.2 | 0.00 | 0.00 | 0.00 | 32 | 1003.9 |
| 20260503234156 | 69 | 203 | 2.6 | 5.2 | 0.00 | 0.00 | 0.00 | 31 | 1003.9 |
| 20260503233650 | 69 | 167 | 2.6 | 5.2 | 0.00 | 0.00 | 0.00 | 31 | 1004.0 |
| 20260503233144 | 70 | 183 | 3.5 | 7.0 | 0.00 | 0.00 | 0.00 | 28 | 1004.1 |
| 20260503232908 | 71 | 134 | 3.5 | 7.0 | 0.00 | 0.00 | 0.00 | 28 | 1004.0 |
| 20260503232132 | 72 | 251 | 3.5 | 7.8 | 0.00 | 0.00 | 0.00 | 28 | 1004.1 |
| 20260503231625 | 72 | 136 | 3.5 | 7.8 | 0.00 | 0.00 | 0.00 | 28 | 1004.1 |
| 20260503231120 | 72 | 194 | 3.5 | 5.2 | 0.00 | 0.00 | 0.00 | 27 | 1004.1 |
| 20260503230614 | 72 | 225 | 3.5 | 5.2 | 0.00 | 0.00 | 0.00 | 26 | 1004.2 |
| 20260503230108 | 73 | 146 | 4.3 | 7.0 | 0.00 | 0.00 | 0.00 | 27 | 1004.2 |
| 20260503225602 | 73 | 173 | 4.3 | 7.0 | 0.00 | 0.00 | 0.00 | 27 | 1004.2 |
| 20260503225326 | 73 | 205 | 2.6 | 7.0 | 0.00 | 0.00 | 0.00 | 26 | 1004.3 |
| 20260503224550 | 74 | 198 | 1.7 | 7.0 | 0.00 | 0.00 | 0.00 | 25 | 1004.3 |
| 20260503224044 | 74 | 314 | 0.9 | 6.1 | 0.00 | 0.00 | 0.00 | 27 | 1004.3 |
| 20260503223538 | 73 | 216 | 2.6 | 6.1 | 0.00 | 0.00 | 0.00 | 28 | 1004.4 |
| 20260503223032 | 73 | 122 | 3.5 | 7.8 | 0.00 | 0.00 | 0.00 | 28 | 1004.4 |
| 20260503222756 | 73 | 189 | 3.5 | 7.8 | 0.00 | 0.00 | 0.00 | 27 | 1004.5 |
| 20260503222019 | 74 | 127 | 3.5 | 7.0 | 0.00 | 0.00 | 0.00 | 27 | 1004.4 |
| 20260503221513 | 74 | 165 | 2.6 | 6.1 | 0.00 | 0.00 | 0.00 | 26 | 1004.4 |
| 20260503221008 | 74 | 163 | 1.7 | 5.2 | 0.00 | 0.00 | 0.00 | 27 | 1004.5 |
| 20260503220507 | 74 | 186 | 2.6 | 8.7 | 0.00 | 0.00 | 0.00 | 26 | 1004.5 |
| 20260503220501 | 74 | 134 | 2.6 | 8.7 | 0.00 | 0.00 | 0.00 | 22 | 1004.6 |
| 20260503215450 | 74 | 221 | 1.7 | 6.1 | 0.00 | 0.00 | 0.00 | 29 | 1004.5 |
| 20260503215215 | 73 | 56 | 1.7 | 5.2 | 0.00 | 0.00 | 0.00 | 25 | 1004.7 |
| 20260503214438 | 73 | 160 | 0.9 | 4.3 | 0.00 | 0.00 | 0.00 | 27 | 1004.8 |
| 20260503214202 | 73 | 167 | 0.9 | 4.3 | 0.00 | 0.00 | 0.00 | 24 | 1004.8 |
| 20260503213431 | 73 | 92 | 0.9 | 5.2 | 0.00 | 0.00 | 0.00 | 29 | 1004.9 |
| 20260503213425 | 73 | 20 | 0.9 | 5.2 | 0.00 | 0.00 | 0.00 | 26 | 1004.9 |
| 20260503212413 | 72 | 159 | 0.9 | 3.5 | 0.00 | 0.00 | 0.00 | 24 | 1004.9 |
| 20260503211913 | 73 | 342 | 0.9 | 4.3 | 0.00 | 0.00 | 0.00 | 25 | 1005.1 |
| 20260503211908 | 72 | 6 | 0.9 | 4.3 | 0.00 | 0.00 | 0.00 | 25 | 1005.1 |
| 20260503210855 | 73 | 217 | 0.9 | 3.5 | 0.00 | 0.00 | 0.00 | 30 | 1005.1 |
| 20260503210621 | 73 | 32 | 0.9 | 3.5 | 0.00 | 0.00 | 0.00 | 24 | 1005.2 |
| 20260503205843 | 73 | 232 | 0.9 | 3.5 | 0.00 | 0.00 | 0.00 | 29 | 1005.2 |
| 20260503205338 | 72 | 95 | 1.7 | 5.2 | 0.00 | 0.00 | 0.00 | 26 | 1005.2 |
| 20260503204832 | 72 | 72 | 1.7 | 8.7 | 0.00 | 0.00 | 0.00 | 25 | 1005.4 |
| 20260503204331 | 73 | 165 | 0.9 | 6.1 | 0.00 | 0.00 | 0.00 | 29 | 1005.5 |
| 20260503204326 | 73 | 338 | 1.7 | 8.7 | 0.00 | 0.00 | 0.00 | 24 | 1005.4 |
| 20260503203313 | 73 | 134 | 0.0 | 4.3 | 0.00 | 0.00 | 0.00 | 26 | 1005.7 |
| 20260503203038 | 73 | 149 | 0.0 | 3.5 | 0.00 | 0.00 | 0.00 | 24 | 1005.5 |
| 20260503202537 | 72 | 108 | 0.9 | 3.5 | 0.00 | 0.00 | 0.00 | 27 | 1005.7 |
| 20260503202257 | 72 | 342 | 1.7 | 6.1 | 0.00 | 0.00 | 0.00 | 28 | 1005.8 |
| 20260503201250 | 72 | 37 | 1.7 | 6.1 | 0.00 | 0.00 | 0.00 | 25 | 1005.8 |
| 20260503200744 | 72 | 15 | 0.9 | 6.1 | 0.00 | 0.00 | 0.00 | 26 | 1005.7 |
| 20260503200238 | 72 | 165 | 1.7 | 6.1 | 0.00 | 0.00 | 0.00 | 25 | 1005.8 |
| 20260503195732 | 72 | 27 | 0.9 | 4.3 | 0.00 | 0.00 | 0.00 | 24 | 1005.8 |
| 20260503195225 | 72 | 0 | 0.9 | 4.3 | 0.00 | 0.00 | 0.00 | 26 | 1005.9 |
| 20260503194725 | 72 | 108 | 1.7 | 7.0 | 0.00 | 0.00 | 0.00 | 25 | 1006.0 |
| 20260503194214 | 72 | 174 | 1.7 | 7.0 | 0.00 | 0.00 | 0.00 | 29 | 1005.8 |
| 20260503193708 | 72 | 278 | 1.7 | 5.2 | 0.00 | 0.00 | 0.00 | 25 | 1005.9 |
| 20260503193202 | 73 | 354 | 0.9 | 5.2 | 0.00 | 0.00 | 0.00 | 26 | 1005.9 |
| 20260503192701 | 73 | 6 | 0.9 | 7.0 | 0.00 | 0.00 | 0.00 | 31 | 1006.1 |
| 20260503192656 | 73 | 113 | 0.9 | 7.0 | 0.00 | 0.00 | 0.00 | 29 | 1006.1 |
| 20260503191643 | 72 | 354 | 0.9 | 6.1 | 0.00 | 0.00 | 0.00 | 30 | 1006.3 |
| 20260503191408 | 72 | 9 | 0.9 | 3.5 | 0.00 | 0.00 | 0.00 | 26 | 1006.3 |
| 20260503190631 | 72 | 242 | 1.7 | 6.1 | 0.00 | 0.00 | 0.00 | 32 | 1006.3 |
| 20260503190125 | 71 | 179 | 1.7 | 7.0 | 0.00 | 0.00 | 0.00 | 33 | 1006.2 |
| 20260503185620 | 71 | 148 | 1.7 | 7.0 | 0.00 | 0.00 | 0.00 | 32 | 1006.3 |
| 20260503185113 | 71 | 107 | 2.6 | 7.0 | 0.00 | 0.00 | 0.00 | 33 | 1006.3 |
| 20260503184607 | 71 | 211 | 2.6 | 7.0 | 0.00 | 0.00 | 0.00 | 35 | 1006.4 |
| 20260503184101 | 71 | 193 | 1.7 | 6.1 | 0.00 | 0.00 | 0.00 | 34 | 1006.3 |
| 20260503183556 | 71 | 140 | 1.7 | 5.2 | 0.00 | 0.00 | 0.00 | 40 | 1006.3 |
| 20260503183049 | 71 | 24 | 0.9 | 5.2 | 0.00 | 0.00 | 0.00 | 32 | 1006.2 |
| 20260503182544 | 70 | 108 | 1.7 | 5.2 | 0.00 | 0.00 | 0.00 | 29 | 1006.3 |
| 20260503182038 | 70 | 6 | 1.7 | 5.2 | 0.00 | 0.00 | 0.00 | 28 | 1006.3 |
| 20260503181804 | 70 | 356 | 1.7 | 4.3 | 0.00 | 0.00 | 0.00 | 27 | 1006.3 |
| 20260503181026 | 70 | 22 | 1.7 | 6.1 | 0.00 | 0.00 | 0.00 | 31 | 1006.5 |
| 20260503180519 | 71 | 16 | 1.7 | 6.1 | 0.00 | 0.00 | 0.00 | 31 | 1006.6 |
| 20260503180013 | 71 | 314 | 1.7 | 7.0 | 0.00 | 0.00 | 0.00 | 35 | 1006.6 |
| 20260503175738 | 71 | 193 | 1.7 | 7.0 | 0.00 | 0.00 | 0.00 | 39 | 1006.6 |
| 20260503175002 | 71 | 288 | 0.9 | 4.3 | 0.00 | 0.00 | 0.00 | 41 | 1006.5 |
| 20260503174455 | 71 | 110 | 0.9 | 4.3 | 0.00 | 0.00 | 0.00 | 39 | 1006.5 |
| 20260503173950 | 70 | 92 | 1.7 | 5.2 | 0.00 | 0.00 | 0.00 | 37 | 1006.6 |
| 20260503173444 | 70 | 198 | 1.7 | 5.2 | 0.00 | 0.00 | 0.00 | 40 | 1006.5 |
| 20260503172943 | 69 | 101 | 0.9 | 5.2 | 0.00 | 0.00 | 0.00 | 38 | 1006.6 |
| 20260503172938 | 70 | 250 | 0.9 | 3.5 | 0.00 | 0.00 | 0.00 | 42 | 1006.6 |
| 20260503171929 | 69 | 313 | 1.7 | 5.2 | 0.00 | 0.00 | 0.00 | 38 | 1006.7 |
| 20260503171921 | 69 | 89 | 1.7 | 6.1 | 0.00 | 0.00 | 0.00 | 40 | 1006.8 |
| 20260503171145 | 69 | 259 | 1.7 | 6.1 | 0.00 | 0.00 | 0.00 | 47 | 1006.7 |
| 20260503170407 | 69 | 4 | 0.9 | 4.3 | 0.00 | 0.00 | 0.00 | 38 | 1006.7 |
| 20260503150649 | 63 | 330 | 0.9 | 5.2 | 0.00 | 0.00 | 0.00 | 47 | 1006.6 |
| 20260503150143 | 63 | 319 | 0.9 | 3.5 | 0.00 | 0.00 | 0.00 | 50 | 1006.5 |
| 20260503131052 | 54 | 19 | 0.9 | 5.2 | 0.00 | 0.00 | 0.00 | 63 | 1005.8 |
| 20260503130552 | 53 | 348 | 0.9 | 2.6 | 0.00 | 0.00 | 0.00 | 64 | 1005.7 |
| 20260503110441 | 49 | 190 | 0.0 | 0.0 | 0.00 | 0.00 | 0.00 | 63 | 1004.4 |
| 20260503090423 | 54 | 211 | 0.0 | 3.5 | 0.00 | 0.00 | 0.00 | 56 | 1004.6 |
| 20260503090153 | 54 | 246 | 0.0 | 1.7 | 0.00 | 0.00 | 0.00 | 57 | 1004.6 |
| 20260503081143 | 55 | 136 | 0.0 | 0.0 | 0.00 | 0.00 | 0.00 | 59 | 1004.9 |
| 20260503080412 | 55 | 136 | 0.0 | 0.9 | 0.00 | 0.00 | 0.00 | 59 | 1004.9 |
| 20260503072907 | 56 | 166 | 0.9 | 2.6 | 0.00 | 0.00 | 0.00 | 58 | 1005.2 |
| 20260503072407 | 56 | 215 | 0.0 | 1.7 | 0.00 | 0.00 | 0.00 | 59 | 1005.2 |
| 20260503071908 | 56 | 136 | 0.0 | 2.6 | 0.00 | 0.00 | 0.00 | 58 | 1005.2 |
| 20260503071407 | 56 | 158 | 0.0 | 2.6 | 0.00 | 0.00 | 0.00 | 57 | 1005.3 |
| 20260503070908 | 56 | 110 | 0.0 | 2.6 | 0.00 | 0.00 | 0.00 | 57 | 1005.2 |
| 20260503070405 | 56 | 203 | 0.0 | 2.6 | 0.00 | 0.00 | 0.00 | 57 | 1005.4 |
| 20260503054900 | 57 | 226 | 0.9 | 4.3 | 0.00 | 0.00 | 0.00 | 50 | 1006.5 |
| 20260503054359 | 57 | 100 | 1.7 | 4.3 | 0.00 | 0.00 | 0.00 | 50 | 1006.7 |
| 20260503053901 | 57 | 255 | 1.7 | 6.1 | 0.00 | 0.00 | 0.00 | 49 | 1006.9 |
| 20260503053401 | 57 | 145 | 1.7 | 6.1 | 0.00 | 0.00 | 0.00 | 49 | 1007.0 |
| 20260503052900 | 57 | 217 | 0.9 | 4.3 | 0.00 | 0.00 | 0.00 | 49 | 1007.1 |
| 20260503052401 | 57 | 125 | 1.7 | 5.2 | 0.00 | 0.00 | 0.00 | 49 | 1007.1 |
| 20260503051859 | 58 | 183 | 1.7 | 5.2 | 0.00 | 0.00 | 0.00 | 49 | 1007.1 |
| 20260503051630 | 58 | 156 | 0.9 | 6.1 | 0.00 | 0.00 | 0.00 | 48 | 1007.1 |
| 20260503050900 | 58 | 143 | 1.7 | 6.1 | 0.00 | 0.00 | 0.00 | 48 | 1007.0 |
| 20260503050400 | 58 | 146 | 1.7 | 6.1 | 0.00 | 0.00 | 0.00 | 48 | 1007.1 |
| 20260503045900 | 58 | 146 | 0.9 | 6.1 | 0.00 | 0.00 | 0.00 | 48 | 1007.0 |
| 20260503045631 | 58 | 222 | 0.9 | 4.3 | 0.00 | 0.00 | 0.00 | 48 | 1007.1 |
| 20260503044854 | 58 | 212 | 0.9 | 5.2 | 0.00 | 0.00 | 0.00 | 48 | 1007.2 |
| 20260503044348 | 58 | 204 | 0.9 | 5.2 | 0.00 | 0.00 | 0.00 | 47 | 1007.3 |
| 20260503043842 | 59 | 146 | 0.9 | 4.3 | 0.00 | 0.00 | 0.00 | 47 | 1007.4 |
| 20260503043337 | 59 | 169 | 0.9 | 3.5 | 0.00 | 0.00 | 0.00 | 47 | 1007.4 |
| 20260503043102 | 59 | 256 | 0.9 | 4.3 | 0.00 | 0.00 | 0.00 | 46 | 1007.4 |